User: anonymous   Login
Location: Unspecified
(0.0000°N, 0.0000°E)
Time: 21:18:50
(UTC+00:00)
Language:

CANX-2 - Orbit

View from above orbital plane
View from above orbital plane
View from above satellite
View from above satellite

Ground track
Ground track

The orbit data is extracted from the following two-line orbital elements,

1 32790U 08021H   17141.31703049 +.00000295 +00000-0 +38124-4 0  9991
2 32790 097.5660 165.2079 0012239 257.7619 102.2228 14.87601294490765
Epoch (UTC): 21 May 2017 07:36:31
Eccentricity: 0.0012239
inclination: 97.5660°
perigee height: 597 km
apogee height: 614 km
right ascension of ascending node: 165.2079°
argument of perigee: 257.7619°
revolutions per day: 14.87601294
mean anomaly at epoch: 102.2228°
orbit number at epoch: 49076

The dashed part of the orbit path shows where the satellite is in the earth's shadow,  

DLR